SR9WXJ Weather Reports


time (UTC)temp
C
wind
direction
speed
KPH
gust
KPH
rain 1hr
cm
rain 24hr
cm
rain mn
cm
humidity
%
barometer
mb
20260506152706 21 151 4.8 9.7 0.00 0.00 0.00 100 782.9
20260506152155 21 144 3.2 6.4 0.00 0.00 0.00 100 782.9
20260506151645 21 151 6.4 8.0 0.00 0.00 0.00 100 782.9
20260506151134 21 164 6.4 16.1 0.00 0.00 0.00 100 782.9
20260506150634 21 162 6.4 9.7 0.00 0.00 0.00 100 782.9
20260506150124 22 159 6.4 9.7 0.00 0.00 0.00 100 782.9
20260506145102 21 138 8.0 12.9 0.00 0.00 0.00 100 782.9
20260506144552 21 141 4.8 6.4 0.00 0.00 0.00 100 782.0
20260506144052 21 154 6.4 9.7 0.00 0.00 0.00 100 782.0
20260506143541 21 149 4.8 9.7 0.00 0.00 0.00 100 782.0
20260506143031 21 146 3.2 8.0 0.00 0.00 0.00 100
20260506142520 22 164 3.2 3.2 0.00 0.00 0.00 100
20260506142214 23 100 4.8 8.0 0.00 0.00 0.00 100 796.8
20260506141703 23 188 3.2 3.2 0.00 0.00 0.00 100 796.8
20260506141152 21 162 3.2 6.4 0.00 0.00 0.00 100 796.8
20260506140141 22 137 6.4 6.4 0.00 0.00 0.00 100 796.8
20260506135118 23 212 3.2 3.2 0.00 0.00 0.00 100 796.8
20260506134618 22 144 4.8 4.8 0.00 0.00 0.00 100 796.8
20260506134107 24 195 4.8 6.4 0.00 0.00 0.00 100 796.8
20260506133556 25 190 6.4 8.0 0.00 0.00 0.00 100 796.8
20260506133045 24 183 6.4 9.7 0.00 0.00 0.00 100 796.8
20260506132534 23 151 3.2 8.0 0.00 0.00 0.00 100 796.8
20260506132034 23 179 6.4 9.7 0.00 0.00 0.00 100 796.8
20260506131523 23 150 4.8 9.7 0.00 0.00 0.00 100 796.8
20260506131011 23 251 4.8 6.4 0.00 0.00 0.00 100 796.8
20260506130502 23 186 3.2 4.8 0.00 0.00 0.00 100 796.8
20260506130004 24 182 4.8 4.8 0.00 0.00 0.00 100 796.8
20260506125449 23 167 3.2 8.0 0.00 0.00 0.00 100 796.8
20260506124427 22 160 6.4 11.3 0.00 0.00 0.00 100 796.8
20260506123915 22 180 4.8 9.7 0.00 0.00 0.00 100 796.8
20260506123416 21 159 6.4 9.7 0.00 0.00 0.00 100 796.8
20260506122904 22 195 3.2 3.2 0.00 0.00 0.00 100 796.8
20260506122354 23 173 6.4 6.4 0.00 0.00 0.00 100 796.8
20260506121842 23 118 3.2 6.4 0.00 0.00 0.00 100 796.8
20260506121331 22 203 3.2 3.2 0.00 0.00 0.00 100 796.8
20260506120827 23 169 4.8 8.0 0.00 0.00 0.00 100 796.8
20260506120318 22 218 3.2 6.4 0.00 0.00 0.00 100 796.8
20260506115814 21 206 3.2 8.0 0.00 0.00 0.00 100 796.8
20260506115306 20 138 3.2 3.2 0.00 0.00 0.00 100 796.8
20260506114752 20 156 4.8 6.4 0.00 0.00 0.00 100 796.8
20260506114242 21 162 4.8 4.8 0.00 0.00 0.00 100 796.8
20260506113730 21 140 3.2 3.2 0.00 0.00 0.00 100 796.8
20260506113230 22 205 3.2 6.4 0.00 0.00 0.00 100 796.8
20260506112719 22 287 3.2 4.8 0.00 0.00 0.00 100 796.8
20260506112208 22 132 4.8 9.7 0.00 0.00 0.00 100 796.8
20260506111657 22 163 4.8 11.3 0.00 0.00 0.00 100 796.8
20260506111146 22 200 3.2 3.2 0.00 0.00 0.00 100 796.8
20260506110648 22 179 4.8 6.4 0.00 0.00 0.00 100 796.8
20260506110135 21 186 6.4 11.3 0.00 0.00 0.00 100 796.8
20260506105113 21 171 4.8 4.8 0.00 0.00 0.00 100 796.8
20260506104101 20 245 8.0 12.9 0.00 0.00 0.00 100 796.8
20260506103550 21 194 4.8 6.4 0.00 0.00 0.00 100 796.8
20260506103039 21 202 6.4 12.9 0.00 0.00 0.00 100 796.8
20260506102527 21 237 4.8 9.7 0.00 0.00 0.00 100 796.8
20260506102027 20 234 4.8 8.0 0.00 0.00 0.00 100 796.8
20260506101516 20 96 3.2 3.2 0.00 0.00 0.00 100 796.8
20260506101007 20 184 4.8 9.7 0.00 0.00 0.00 100 796.8
20260506100453 20 208 4.8 8.0 0.00 0.00 0.00 100 796.8
20260506095952 20 190 3.2 6.4 0.00 0.00 0.00 100 796.8
20260506095441 20 176 3.2 4.8 0.00 0.00 0.00 100 796.8
20260506094930 20 142 4.8 9.7 0.00 0.00 0.00 100 796.8
20260506094419 20 165 4.8 9.7 0.00 0.00 0.00 100 796.8
20260506093908 20 229 4.8 9.7 0.00 0.00 0.00 100 796.8
20260506093409 20 188 4.8 9.7 0.00 0.00 0.00 100 796.8
20260506092855 19 169 3.2 12.9 0.00 0.00 0.00 100 796.8
20260506092344 19 221 4.8 6.4 0.00 0.00 0.00 100 796.8
20260506090821 18 192 4.8 4.8 0.00 0.00 0.00 100 796.8
20260506090310 18 127 3.2 4.8 0.00 0.00 0.00 100 796.8
20260506085259 18 205 4.8 6.4 0.00 0.00 0.00 100 796.8
20260506084748 18 163 6.4 11.3 0.00 0.00 0.00 100 796.8
20260506083727 18 268 3.2 4.8 0.00 0.00 0.00 100 798.5
20260506083215 18 124 3.2 3.2 0.00 0.00 0.00 100 798.5
20260506082715 18 76 3.2 3.2 0.00 0.00 0.00 100 798.5
20260506082204 18 212 6.4 6.4 0.00 0.00 0.00 100 798.5
20260506081655 18 172 4.8 9.7 0.00 0.00 0.00 100 798.5
20260506081141 17 18 3.2 3.2 0.00 0.00 0.00 100 798.5
20260506080641 17 145 3.2 6.4 0.00 0.00 0.00 100 798.5
20260506073034 16 138 4.8 8.0 0.00 0.00 0.00 100 798.5
20260506072524 16 194 6.4 14.5 0.00 0.00 0.00 100 798.5
20260506072026 15 166 6.4 12.9 0.00 0.00 0.00 100 798.5
20260506071512 15 166 4.8 6.4 0.00 0.00 0.00 100 799.0
20260506071001 15 147 4.8 9.7 0.00 0.00 0.00 100 799.0
20260506070450 15 154 4.8 11.3 0.00 0.00 0.00 100 799.0
20260506062341 14 107 3.2 4.8 0.00 0.00 0.00 100 799.0
20260506061838 14 137 3.2 4.8 0.00 0.00 0.00 100 799.0
20260506061327 14 139 3.2 3.2 0.00 0.00 0.00 100 799.5
20260506060816 14 167 3.2 4.8 0.00 0.00 0.00 100 799.5
20260506060306 14 261 4.8 8.0 0.00 0.00 0.00 100 797.0
20260506050635 13 135 4.8 8.0 0.00 0.00 0.00 100 792.2
20260506050125 13 104 6.4 9.7 0.00 0.00 0.00 100 792.2
20260506045103 13 175 3.2 3.2 0.00 0.00 0.00 100 792.2
20260506043540 13 168 6.4 12.9 0.00 0.00 0.00 100 792.2
20260506043032 13 185 3.2 4.8 0.00 0.00 0.00 100 792.2
20260506042517 13 166 4.8 8.0 0.00 0.00 0.00 100 792.2
20260506042018 13 171 4.8 11.3 0.00 0.00 0.00 100 792.2
20260506041507 13 170 6.4 9.7 0.00 0.00 0.00 100 792.2
20260506040954 13 163 3.2 6.4 0.00 0.00 0.00 100 792.2
20260506040443 13 184 8.0 16.1 0.00 0.00 0.00 100 792.2
20260506035943 13 180 8.0 14.5 0.00 0.00 0.00 100 792.2
20260506034921 13 176 3.2 3.2 0.00 0.00 0.00 100 792.2
20260506034409 13 168 3.2 4.8 0.00 0.00 0.00 100 792.2
20260506033858 13 158 4.8 12.9 0.00 0.00 0.00 100 792.2
20260506033401 13 159 4.8 8.0 0.00 0.00 0.00 100 792.2
20260506032847 13 174 3.2 3.2 0.00 0.00 0.00 100 792.2
20260506031825 13 155 3.2 6.4 0.00 0.00 0.00 100 789.9
20260506030814 13 127 3.2 3.2 0.00 0.00 0.00 100 789.9
20260506030303 14 135 3.2 6.4 0.00 0.00 0.00 100 789.9
20260506025751 14 219 4.8 4.8 0.00 0.00 0.00 100 789.9
20260506025240 14 122 3.2 3.2 0.00 0.00 0.00 100 789.9
20260506024740 14 135 4.8 4.8 0.00 0.00 0.00 100 789.9
20260506024229 14 163 4.8 6.4 0.00 0.00 0.00 100 789.9
20260506023721 14 201 3.2 4.8 0.00 0.00 0.00 100 789.9
20260506022403 15 152 4.8 4.8 0.00 0.00 0.00 100 789.9
20260506021153 15 144 4.8 4.8 0.00 0.00 0.00 100 789.9
20260506015952 15 113 3.2 3.2 0.00 0.00 0.00 100 789.9
20260506014740 15 135 4.8 4.8 0.00 0.00 0.00 100 789.9
20260506013531 15 152 3.2 4.8 0.00 0.00 0.00 100 789.9
20260506012320 15 107 3.2 3.2 0.00 0.00 0.00 100 789.9
20260506011105 15 159 3.2 8.0 0.00 0.00 0.00 100 789.9
20260506005854 15 110 3.2 4.8 0.00 0.00 0.00 100 789.9
20260506004645 15 153 4.8 6.4 0.00 0.00 0.00 100 789.9
20260506003435 14 146 3.2 3.2 0.00 0.00 0.00 100 789.9
20260506002224 15 147 3.2 3.2 0.00 0.00 0.00 100 789.9
20260506001012 15 95 3.2 3.2 0.00 0.00 0.00 100 789.9
20260505235813 15 179 3.2 3.2 0.00 0.00 0.00 100 789.9
20260505234604 14 114 4.8 4.8 0.00 0.00 0.00 100 789.9
20260505233352 14 234 4.8 4.8 0.00 0.00 0.00 100 789.9
20260505232139 15 267 4.8 4.8 0.00 0.00 0.00 100 789.9
20260505230929 15 195 3.2 4.8 0.00 0.00 0.00 100 789.9
20260505225720 15 25 3.2 3.2 0.00 0.00 0.00 100 789.9
20260505224510 15 166 3.2 3.2 0.00 0.00 0.00 100 789.9
20260505223257 15 25 3.2 3.2 0.00 0.00 0.00 100 789.9
20260505222048 16 109 4.8 6.4 0.00 0.00 0.00 100 789.9
20260505220838 16 39 3.2 3.2 0.00 0.00 0.00 100 789.9
20260505215636 16 105 3.2 4.8 0.00 0.00 0.00 100 789.9
20260505214423 16 97 3.2 6.4 0.00 0.00 0.00 100 789.9
20260505213213 16 97 3.2 4.8 0.00 0.00 0.00 100 789.9
20260505210754 17 143 3.2 4.8 0.00 0.00 0.00 100 789.9
20260505205541 17 172 3.2 4.8 0.00 0.00 0.00 100 789.9
20260505204331 17 136 3.2 3.2 0.00 0.00 0.00 100 789.9
20260505203122 17 64 3.2 3.2 0.00 0.00 0.00 100 789.9
20260505201912 17 141 4.8 17.7 0.00 0.00 0.00 100 789.9
20260505200659 17 75 6.4 6.4 0.00 0.00 0.00 100 789.9
20260505194236 17 120 3.2 3.2 0.00 0.00 0.00 100 789.9
20260505193026 18 343 3.2 3.2 0.00 0.00 0.00 100 789.9
20260505191814 18 142 4.8 9.7 0.00 0.00 0.00 100 789.9
20260505190611 18 67 3.2 3.2 0.00 0.00 0.00 100 789.9
20260505185401 18 54 3.2 3.2 0.00 0.00 0.00 100 789.9
20260505184148 18 176 6.4 6.4 0.00 0.00 0.00 100 789.9
20260505182831 18 354 3.2 3.2 0.00 0.00 0.00 100 789.9
20260505182320 18 32 3.2 3.2 0.00 0.00 0.00 100 789.9
20260505181820 19 119 4.8 8.0 0.00 0.00 0.00 100 789.9
20260505181309 19 82 3.2 4.8 0.00 0.00 0.00 100 789.9
20260505180759 19 134 3.2 3.2 0.00 0.00 0.00 100 789.9
20260505180248 19 165 4.8 8.0 0.00 0.00 0.00 100 789.9
20260505175738 20 80 4.8 4.8 0.00 0.00 0.00 100 789.9
20260505175228 20 136 6.4 8.0 0.00 0.00 0.00 100 789.9
20260505174218 21 156 4.8 6.4 0.00 0.00 0.00 100 789.9
20260505173707 21 135 4.8 6.4 0.00 0.00 0.00 100 789.9
20260505173156 22 149 4.8 11.3 0.00 0.00 0.00 100 789.9
20260505172645 22 174 4.8 11.3 0.00 0.00 0.00 100 789.9
20260505172146 22 165 4.8 9.7 0.00 0.00 0.00 100 789.9
20260505171635 22 147 4.8 8.0 0.00 0.00 0.00 100 789.9
20260505171124 23 174 9.7 33.8 0.00 0.00 0.00 100 789.9
20260505170614 23 188 4.8 6.4 0.00 0.00 0.00 100 789.9
20260505170103 23 155 6.4 14.5 0.00 0.00 0.00 100 789.9
20260505165553 23 169 6.4 8.0 0.00 0.00 0.00 100 789.9
20260505165053 23 155 8.0 19.3 0.00 0.00 0.00 100 789.9
20260505164542 23 157 6.4 8.0 0.00 0.00 0.00 100 789.9
20260505164031 23 176 4.8 14.5 0.00 0.00 0.00 100 789.9
20260505163521 23 160 6.4 11.3 0.00 0.00 0.00 100 789.9
20260505163010 23 126 3.2 9.7 0.00 0.00 0.00 100 789.9
20260505162511 23 169 4.8 11.3 0.00 0.00 0.00 100 789.9
20260505162000 23 138 4.8 12.9 0.00 0.00 0.00 100 789.9
20260505160939 23 162 6.4 12.9 0.00 0.00 0.00 100 789.9
20260505160436 22 187 6.4 19.3 0.00 0.00 0.00 100 789.9
20260505153342 23 164 4.8 9.7 0.00 0.00 0.00 100 789.9